Regional Weather Roundup
Issued by NWS

Home | Current Version | Previous Version | Text Only | Print | Product List | Glossary Off
Versions: 1 2 3 4 5 6 7 8 9 10 11 12 13 14 15 16 17 18 19 20 21 22 23 24 25 26 27 28 29 30 31 32 33 34 35 36 37 38 39 40 41 42 43 44 45 46 47 48 49 50

000
ASUS44 KMEG 290710
RWRTN
TENNESSEE HOURLY STATE WEATHER ROUNDUP
NATIONAL WEATHER SERVICE MEMPHIS TN
200 AM CDT FRI AUG 29 2014

TNZ002-004-019-021-049-052-054-088>092-290800-
WEST TENNESSEE

CITY           SKY/WX    TMP DP  RH WIND       PRES   REMARKS
MEMPHIS INTL   PTCLDY    77  69  76 S5        29.97F
NWS MEMPHIS      N/A     74 N/A N/A MISG        N/A
JACKSON        CLEAR     74  72  93 SE3       29.98F
DYERSBURG      CLEAR     72  63  73 CALM      29.98F
UNION CITY       N/A     70  70 100 CALM      29.97F VSB 1/2
PARIS          CLEAR     70  66  88 CALM      29.99F
HUNTINGDON     CLEAR     69  68  97 CALM      29.99F
LEXINGTON      PTCLDY    72  70  94 CALM      29.98F
SAVANNAH       CLEAR     70  70 100 CALM      29.99F
$$

TNZ008-025-027-028-033-062-065-066-290800-
NORTH MIDDLE TENNESSEE

CITY           SKY/WX    TMP DP  RH WIND       PRES   REMARKS
NASHVILLE      CLEAR     74  72  93 CALM      30.01F
DICKSON        CLEAR     72  70  94 CALM      30.01F
PORTLAND       PTCLDY    72  70  94 SE5       30.01
CLARKSVILLE    PTCLDY    73  70  90 E3        29.99F
LEBANON        CLEAR     72  70  93 CALM      30.00F
SMYRNA         CLEAR     73  71  93 CALM      30.02F
MURFREESBORO   CLEAR     74  71  90 CALM      30.01S
COOKEVILLE     MOCLDY    68  68 100 CALM      30.04F VSB 3/4
GALLATIN       CLEAR     75  75 100 CALM      30.02F
CROSSVILLE     CLEAR     71  66  84 CALM      30.10S HAZE
$$

TNZ061-075-076-078-094-096-097-290800-
SOUTH MIDDLE TENNESSEE

CITY           SKY/WX    TMP DP  RH WIND       PRES   REMARKS
LEWISBURG        N/A     67  66  96 CALM      30.01F VSB 1/2
FAYETTEVILLE   CLEAR     70  64  83 CALM      30.03S
TULLAHOMA      CLEAR     66  64  94 CALM      30.05F
WINCHESTER     CLEAR     68  66  94 CALM      30.04S
MCMINNVILLE    CLEAR     70  70 100 CALM      30.04F
COLUMBIA       CLEAR     72  72 100 CALM      30.00F
SHELBYVILLE    CLEAR     72  72 100 CALM      30.03F
$$

TNZ017-018-042-046-047-290800-
NORTHEAST TENNESSEE

CITY           SKY/WX    TMP DP  RH WIND       PRES   REMARKS
TRI CITIES     CLEAR     67  64  90 N3        30.09S FOG
ELIZABETHTON   SUNNY     66  64  94 CALM      30.10S
$$

TNZ012-013-036-069-073-074-290800-
CENTRAL EAST TENNESSEE

CITY           SKY/WX    TMP DP  RH WIND       PRES   REMARKS
KNOXVILLE      CLEAR     71  69  93 NE3       30.03S
OAK RIDGE      CLEAR     73  71  93 CALM      30.06S
GATLINBURG     MOSUNNY   70  66  88 CALM      30.04S
MORRISTOWN     SUNNY     72  70  94 NE5       30.07F
$$

TNZ083-085-099-290800-
SOUTHEAST TENNESSEE

CITY           SKY/WX    TMP DP  RH WIND       PRES   REMARKS
CHATTANOOGA    CLEAR     72  66  81 CALM      30.04S
$$

SKY/WX REPORTED AS FAIR MEANS FEW OR NO CLOUDS BELOW
12 THOUSAND FEET.



USA.gov is the U.S. government's official web portal to all federal, state and local government web resources and services.